Weather History for PAJN - May, 2013

Change the Weather History Date:

Tuesday, May 14, 2013

  Actual Average Record
Temperature  
Mean Temperature 47 °F 48 °F  
Max Temperature 48 °F 56 °F 71 °F (1993)
Min Temperature 45 °F 40 °F 28 °F (1965)
Degree Days  
Heating Degree Days 18 17  
Month to date heating degree days 265 260  
Since 1 July heating degree days 8282 7788  
Cooling Degree Days 0 0  
Month to date cooling degree days 0 0  
Year to date cooling degree days 0 0  
Moisture  
Dew Point 42 °F    
Average Humidity 89    
Maximum Humidity 92    
Minimum Humidity 86    
Precipitation  
Precipitation 0.13 in 0.11 in 1.04 in (1956)
Month to date precipitation 3.43 1.48  
Year to date precipitation 26.47 17.68  
Sea Level Pressure  
Sea Level Pressure 29.79 in    
Wind  
Wind Speed 16 mph (ESE)    
Max Wind Speed 24 mph    
Max Gust Speed 29 mph    
Visibility 9 miles    
Events Rain    
T = Trace of Precipitation, MM = Missing Value Source: NWS Daily Summary

Daily Weather History Graph

Daily Weather History Graph

Search for Another Location

Airport or City:

Trip Planner

Search our weather history database for the weather conditions in past years. The results will help you decide how hot, cold, wet, or windy it might be!

Date:

Astronomy

May. 14, 2013 Rise Set
Actual Time 4:32 AM AKDT 9:17 PM AKDT
Civil Twilight 3:36 AM AKDT 10:14 PM AKDT
Nautical Twilight 1:52 AM AKDT 12:03 AM AKDT
Astronomical Twilight Sun does not rise Sun does not rise
Moon 8:23 AM AKDT (5/14) 12:28 AM AKDT (5/14)
Length of Visible Light 18h 38m
Length of Day
16h 44m
Waxing Crescent, 20% of the Moon is Illuminated
May 14
Waxing Crescent
May 17
First Quarter
May 24
Full
May 31
Last Quarter
Jun 8
New

Hourly Weather History & Observations

Time (AKDT) Temp. Windchill Dew Point Humidity Pressure Visibility Wind Dir Wind Speed Gust Speed Precip Events Conditions
12:45 AM 46.0 °F 38.8 °F 43.0 °F 89% 29.68 in 10.0 mi ESE 18.4 mph - 0.00 in Rain Light Rain
12:53 AM 46.0 °F 38.5 °F 43.0 °F 89% 29.68 in 10.0 mi ESE 19.6 mph - 0.00 in Rain Light Rain
1:53 AM 46.0 °F 40.2 °F 43.0 °F 89% 29.70 in 10.0 mi SE 12.7 mph - 0.00 in Rain Light Rain
2:53 AM 46.0 °F 41.9 °F 43.0 °F 89% 29.72 in 10.0 mi SE 8.1 mph - 0.00 in Rain Light Rain
3:53 AM 46.0 °F 39.9 °F 43.0 °F 89% 29.73 in 10.0 mi ESE 13.8 mph - 0.00 in Rain Light Rain
4:53 AM 46.0 °F 39.0 °F 42.1 °F 86% 29.73 in 10.0 mi ESE 17.3 mph - 0.00 in Rain Light Rain
5:34 AM 45.0 °F 38.5 °F 42.1 °F 90% 29.74 in 10.0 mi ESE 13.8 mph - 0.00 in Rain Light Rain
5:53 AM 46.0 °F 38.8 °F 41.0 °F 83% 29.74 in 10.0 mi ESE 18.4 mph 25.3 mph 0.00 in   Overcast
5:58 AM 46.0 °F 39.6 °F 41.0 °F 83% 29.74 in 10.0 mi ESE 15.0 mph - 0.00 in Rain Light Rain
6:53 AM 45.0 °F 37.4 °F 41.0 °F 86% 29.75 in 10.0 mi ESE 18.4 mph - 0.00 in   Overcast
7:53 AM 45.0 °F 37.9 °F 42.1 °F 90% 29.77 in 10.0 mi ESE 16.1 mph 23.0 mph 0.00 in Rain Light Rain
8:53 AM 46.0 °F 38.0 °F 42.1 °F 86% 29.78 in 10.0 mi ESE 21.9 mph 29.9 mph 0.00 in   Overcast
9:53 AM 46.0 °F 38.5 °F 42.1 °F 86% 29.80 in 10.0 mi ESE 19.6 mph 25.3 mph 0.00 in Rain Light Rain
10:53 AM 46.0 °F 39.0 °F 42.1 °F 86% 29.81 in 10.0 mi ESE 17.3 mph - 0.00 in Rain Light Rain
11:53 AM 46.9 °F - 42.1 °F 83% 29.82 in 10.0 mi ESE 20.7 mph - 0.00 in Rain Light Rain
12:53 PM 46.9 °F - 43.0 °F 86% 29.82 in 10.0 mi ESE 19.6 mph 27.6 mph 0.00 in Rain Light Rain
1:53 PM 46.9 °F - 42.1 °F 83% 29.83 in 10.0 mi ESE 19.6 mph 26.5 mph 0.00 in Rain Light Rain
2:53 PM 46.9 °F - 42.1 °F 83% 29.83 in 7.0 mi ESE 20.7 mph - 0.01 in Rain Light Rain
3:53 PM 46.9 °F - 43.0 °F 86% 29.83 in 9.0 mi ESE 18.4 mph - 0.00 in Rain Light Rain
4:53 PM 46.9 °F - 43.0 °F 86% 29.83 in 8.0 mi ESE 17.3 mph 26.5 mph 0.02 in Rain Light Rain
5:53 PM 46.9 °F - 43.0 °F 86% 29.83 in 6.0 mi ESE 18.4 mph - 0.02 in Rain Light Rain
6:53 PM 46.9 °F - 43.0 °F 86% 29.83 in 10.0 mi ESE 13.8 mph - 0.01 in Rain Light Rain
7:53 PM 46.0 °F 39.0 °F 43.0 °F 89% 29.84 in 6.0 mi SE 17.3 mph - 0.00 in Rain Light Rain
8:13 PM 46.0 °F 39.6 °F 43.0 °F 89% 29.84 in 5.0 mi SE 15.0 mph - 0.00 in Rain Light Rain
8:53 PM 46.0 °F 42.5 °F 43.0 °F 89% 29.85 in 5.0 mi SE 6.9 mph - 0.05 in Rain Light Rain
9:51 PM 44.6 °F 38.8 °F 42.8 °F 93% 29.85 in 6.0 mi ESE 11.5 mph - 0.02 in   Overcast
9:53 PM 46.0 °F 39.9 °F 42.1 °F 86% 29.86 in 6.0 mi SE 13.8 mph - 0.02 in   Overcast
10:13 PM 45.0 °F 40.1 °F 43.0 °F 93% 29.85 in 8.0 mi SE 9.2 mph - 0.00 in Rain Light Rain
10:53 PM 45.0 °F 39.3 °F 42.1 °F 90% 29.86 in 10.0 mi SE 11.5 mph - 0.00 in Rain Light Rain
11:53 PM 45.0 °F 38.9 °F 42.1 °F 90% 29.86 in 10.0 mi SE 12.7 mph - 0.00 in Rain Light Rain